Location: Unspecified
(0.0000°N, 0.0000°E)
Time: 22:18:26
(UTC+00:00)

Hubble Space Telescope - Pass Details

Date: 17 September 2017
Orbit: 537 x 541 km, 28.5° (Epoch: 22 November)

Event Time Altitude Azimuth Distance (km) Brightness Sun altitude
Rises 20:00:29 0° 296° (WNW) 2,669 5.2 -31.5°
Reaches altitude 10° 20:02:44 10° 294° (WNW) 1,780 4.2 -32.1°
Enters shadow 20:04:02 19° 291° (WNW) 1,293 3.3 -32.4°
